STARLINK-5572, 55378

Orbit data source: Space-Track

STARLINK-5572, 55378 is a payload satellite owned by SpaceX/Seattle (US) in LEO that was launched on Thu, 26 Jan 2023 UTC via an FALCON 9 launch vehicle from the Air Force Eastern Test Range (AFETR). Payload-class satellites include a variety of spacecraft equipped with specific instruments for various scientific and technological missions. These include communications satellites like Starlink; space stations such as the ISS; scientific satellites like the Hubble; Earth observation satellites from companies like Planet Labs, Umbra, and HawkEye 360; GPS; miniature CubeSats for education and research; and military/defense satellites.

Loading next visibility...
Identifier
55378, 2023-013AZ
Orbit
LEO
Country
Flag of USUS
Related business
Manufacturer
SpaceX/Seattle
Mission
Operational Commercial Communications
Bus & Motor
STARLINK, Unknown motor
Mass
305 kg wet, ~290 kg dry
Launch date (UTC)
2023-01-26 (3 years ago)
Launch vehicle
FALCON 9
Launch site
Air Force Eastern Test Range (AFETR)
Object type
Payload
Rocket body
Debris
Shape & HBR
Box + 1 Pan, 10.1 m
Radar Cross Section
13.562 m², Large (>1 m²)

Expand to show TLE details & history
Last TLE update: 2 days ago

TLE from 2 days ago
0 STARLINK-5572
1 55378U 23013AZ  26171.19152318 -.00000160  00000-0  37081-5 0  9996
2 55378  43.0030 102.3028 0001339 270.0215  90.0483 15.27575804187148
Epoch: 2026-06-20T04:35Z
TLE epoch observation values (Epoch: 2026-06-20T04:35:47.602Z)
Latitude
-0.00005°
Longitude
124.94472°
Altitude
482.838 km
Speed
7.626 km/s
True Right ascension
06h 49m 12s
True Declination
0° 00' 00"
Sunlit
Object was in daylight at epoch
Visualization orbit readout
Latitude
Unknown
Longitude
Unknown
Altitude
Unknown
Speed
Unknown
Apparent Right ascension
Unknown
Apparent Declination
Unknown
Sunlit
N/A
Visualization observer readout
Local Sidereal Time
21:29:02
Azimuth
Unknown
Elevation
Unknown
Doppler factor
Unknown
Orbital elements
Apogee altitude
485.925 km
Perigee altitude
484.087 km
Semi-major axis
6,863.143 km
Eccentricity
0.00013
Inclination
43.003°
RAAN
102.3028°
Arg. of periapsis
270.0215°
True anomaly
90.06364°
Mean anomaly
90.0483°
Eccentric anomaly
90.05597°
Mean motion
3.81732 °/min
Orbital period
94.31 mins
BSTAR
0.0000037081
Loading maneuver chart data...
Computing Atmospheric mass density...
Loading historical data...
Loading historical data...
Loading historical data...
Loading historical data...
Loading historical data...
Loading historical data...
Loading historical data...

Documentation

Showing up to 5 results
|